TimeMST,TemperatureF,Dew PointF,Humidity,Sea Level PressureIn,VisibilityMPH,Wind Direction,Wind SpeedMPH,Gust SpeedMPH,PrecipitationIn,Events,Conditions,WindDirDegrees,DateUTC
12:53 AM,16.0,12.0,84,30.27,10.0,West,9.2,-,N/A,,Clear,260,2013-02-28 07:53:00
1:53 AM,15.8,12.2,86,30.17,10.0,West,6.9,-,N/A,,Clear,280,2013-02-28 08:53:00
2:53 AM,16.0,10.9,81,30.25,10.0,West,3.5,-,N/A,,Clear,280,2013-02-28 09:53:00
3:53 AM,15.1,10.0,80,30.26,10.0,West,5.8,-,N/A,,Clear,280,2013-02-28 10:53:00
4:53 AM,15.8,10.4,79,30.16,10.0,West,4.6,-,N/A,,Clear,280,2013-02-28 11:53:00
5:53 AM,14.0,9.0,80,30.28,10.0,West,8.1,-,N/A,,Clear,280,2013-02-28 12:53:00
6:53 AM,15.8,10.4,79,30.18,10.0,West,9.2,-,N/A,,Clear,280,2013-02-28 13:53:00
7:53 AM,24.1,16.0,71,30.28,10.0,West,10.4,-,N/A,,Mostly Cloudy,280,2013-02-28 14:53:00
8:53 AM,28.9,16.0,58,30.28,10.0,WNW,12.7,-,N/A,,Overcast,290,2013-02-28 15:53:00
9:53 AM,33.1,15.1,48,30.27,10.0,WNW,12.7,-,N/A,,Mostly Cloudy,300,2013-02-28 16:53:00
10:53 AM,36.0,15.1,43,30.25,10.0,NW,12.7,-,N/A,,Overcast,310,2013-02-28 17:53:00
11:53 AM,41.0,17.1,38,30.24,10.0,NNW,9.2,-,N/A,,Scattered Clouds,330,2013-02-28 18:53:00
12:53 PM,42.8,17.6,36,30.12,10.0,NNW,15.0,-,N/A,,Mostly Cloudy,330,2013-02-28 19:53:00
1:53 PM,45.0,15.1,30,30.19,10.0,NNW,19.6,27.6,N/A,,Mostly Cloudy,340,2013-02-28 20:53:00
2:53 PM,44.1,15.1,31,30.20,10.0,NW,21.9,28.8,N/A,,Mostly Cloudy,310,2013-02-28 21:53:00
3:53 PM,42.1,15.1,34,30.20,10.0,NW,18.4,-,N/A,,Clear,320,2013-02-28 22:53:00
4:53 PM,39.0,15.1,38,30.22,10.0,NNW,16.1,-,N/A,,Mostly Cloudy,330,2013-02-28 23:53:00
5:53 PM,34.0,17.1,50,30.25,10.0,NNW,6.9,-,N/A,,Partly Cloudy,330,2013-03-01 00:53:00
6:53 PM,33.8,17.6,52,30.14,10.0,NNW,8.1,-,N/A,,Mostly Cloudy,330,2013-03-01 01:53:00
7:53 PM,30.9,19.0,61,30.25,10.0,WNW,8.1,-,N/A,,Overcast,290,2013-03-01 02:53:00
8:53 PM,30.9,19.9,64,30.24,10.0,WNW,6.9,-,N/A,,Overcast,300,2013-03-01 03:53:00
9:53 PM,30.0,24.1,79,30.25,10.0,North,9.2,-,N/A,,Partly Cloudy,360,2013-03-01 04:53:00
10:53 PM,28.0,21.9,78,30.25,10.0,NW,10.4,-,N/A,,Clear,310,2013-03-01 05:53:00
11:53 PM,24.1,19.9,84,30.26,10.0,WNW,9.2,-,N/A,,Clear,290,2013-03-01 06:53:00